Weather in Gjogur

Iceland     65°59′39″N   21°19′52″W
temp.,
°C
wind,
m/s
gust,
m/s
humid.,
%
clouds,
%
prec.,
mm/h
press.,
hPa
HPBL,
m
22 january, fri
fri2200:00−2nne131582100 0.7 10151236
03:00−2nne131577100 0.4 10151368
06:00−2n151784100 0.9 10151409
09:00−2nne151778100 0.4 10151432
12:00−2n151779100 0.8 10151422
15:00−2n161875100 0.3 10141518
18:00−2n172075100 0.4 10151642
21:00−2n172077100 0.3 10141645
23 january, sat
sat2300:00−2nne172073100 1.1 10141723
03:00−2n172075100 0.4 10141652
06:00−2nne182172100 1.3 10141866
09:00−2n172077100 0.2 10141755
12:00−2nne182176100 0.9 10141833
15:00−2nne192281100 1.1 10141771
18:00−3nne161983100 1.5 10151578
21:00−3nne151783100 0.6 10151440
24 january, sun
sun2400:00−3nne161884100 1.2 10161434
03:00−3nne151684100 0.6 10161311
06:00−2nne161882100 1.0 10161403
09:00−2nne141681100 0.4 10161339
12:00−2nne121381100 0.9 10171233
15:00−2ne111278100 0.7 10171162
18:00−2ne121379100 1.4 10171266
21:00−3ne111274100 0.6 10181224
25 january, mon
mon2500:00−3ne111177100 0.9 10191206
03:00−4ne111279100 0.5 10201185
06:00−3ne121278100 1.0 10201209
09:00−3ne111176100 0.4 10201218
12:00−3ne111177100 0.8 10211111
15:00−4ne111180100 0.4 10211042
18:00−4ne111178100 0.6 10211146
21:00−5ne111179100 0.3 10211151
26 january, tue
tue2600:00−4ne101077100 0.6 10201196
03:00−4ne101074100 0.2 10191327
06:00−3ene101167100 0.4 10181568
09:00−3ene12138498 0.5 10171256
12:00−3ne14158199 1.2 10171248
15:00−3ne161792100 1.2 10171201
18:00−4ne141690100 2.4 10171186
21:00−3ene141586100 0.7 10181188